Volver al catálogo

COSMOS 2608

ActivoMilitarPO
NORAD 67682·PAYLOAD·🇷🇺 Russia

Lanzado Feb 5, 2026 desde Plesetsk Cosmodrome

Loading…

Próximos Pases (próximas 24 horas)

TLE

ActualizadoSource: Space-Track

Época: Sep 14, 2026, 14:18 UTC

1 67682U 26023J   26257.59615113  .00008603  00000-0  32620-3 0  9998
2 67682  96.6159 311.4957 0021201 153.4167 206.8166 15.26861780 33638

Sigue COSMOS 2608 en tiempo real con AllMySat

Download on the App Store